Etusivu
METAR-TAF:

METAR-TAF

Lentoasemat :

Yellowstone Lake, Wyoming, Yhdysvallat

Leveyspiiri: 44-32-40N, Pituuspiiri: 110-25-16W, korkeus merenpinnasta: 2388 m

Tämänhetkinen sää

Tämä raportti tehtiin 17 minuuttia sitten, kello 19.56 UTC
Tuuli 3 kn idästä/kaakosta
Lämpötila -5°C
Kosteus 86%
Ilmanpaine 1029 hPa

METAR: KP60 031956Z AUTO 12003KT M05/M07 A3040 RMK AO1 SLP360 T10501072

Aika: 13:13 (20:13 UTC)


TAF: puuttuu

Säähavainnot ja -ennusteet yli 4000 lentoasemalta (METAR- ja TAF-raportit).

Käytössä olevat sääasemat on merkitty karttaan keltaisilla ja punaisilla pisteillä.

Aseta hiiri pisteen päälle nähdäksesi sääaseman nimen.

Klikkaa sitten nähdäksesi säähavainnot ja -ennusteet.

Kartan vaihtaminen: klikkaa mustalla rastilla varustettuja vihreitä pisteitä, niin voit zoomata sisään; viivalla varustettua vihreää pistettä, niin voit zoomata ulos tai vihreitä nuolia, niin pääset viereisille kartoille.


METAR-TAF: